Imperial, CA

1:51 PM PDT on August 29, 2016 (GMT -0700)
Imperial County

Weather History for KIPL - December, 2013

Change the Weather History Date:

Monday, December 9, 2013

  Actual Average Record
Temperature  
Mean Temperature 42 °F -  
Max Temperature 55 °F 69 °F 85 °F (1975)
Min Temperature 30 °F 43 °F 28 °F (1960)
Degree Days  
Heating Degree Days 22    
Moisture  
Dew Point 14 °F    
Average Humidity 35    
Maximum Humidity 67    
Minimum Humidity 12    
Precipitation  
Precipitation 0.00 in - - ()
Sea Level Pressure  
Sea Level Pressure 30.36 in    
Wind  
Wind Speed 7 mph (NW)    
Max Wind Speed 16 mph    
Max Gust Speed 23 mph    
Visibility 10 miles    
Events      
Averages and records for this station are not official NWS values.
T = Trace of Precipitation, MM = Missing Value Source: NWS Daily Summary

Daily Weather History Graph

Daily Weather History Graph

Search for Another Location

Airport or City:

Trip Planner

Search our weather history database for the weather conditions in past years. The results will help you decide how hot, cold, wet, or windy it might be!

Date:

Astronomy

Dec. 09, 2013 Rise Set
Actual Time 6:33 AM PST 4:36 PM PST
Civil Twilight 6:06 AM PST 5:03 PM PST
Nautical Twilight 5:35 AM PST 5:34 PM PST
Astronomical Twilight 5:05 AM PST 6:04 PM PST
Moon 11:47 AM PST (12/9) No Moon Set
Length of Visible Light 10h 57m
Length of Day
10h 02m
First Quarter, 52% of the Moon is Illuminated
Dec 9
First Quarter
Dec 17
Full
Dec 25
Last Quarter
Jan 1
New
Jan 7
First Quarter

Hourly Weather History & Observations

Time (PST) Temp. Windchill Dew Point Humidity Pressure Visibility Wind Dir Wind Speed Gust Speed Precip Events Conditions
12:53 AM 37.9 °F 32.7 °F 24.1 °F 57% 30.22 in 10.0 mi West 6.9 mph - N/A   Scattered Clouds
1:53 AM 39.0 °F 36.8 °F 21.9 °F 50% 30.23 in 10.0 mi WNW 3.5 mph - N/A   Scattered Clouds
2:53 AM 39.0 °F 36.8 °F 21.0 °F 49% 30.24 in 10.0 mi WNW 3.5 mph - N/A   Clear
3:53 AM 37.9 °F 34.4 °F 19.9 °F 48% 30.26 in 10.0 mi WNW 4.6 mph - N/A   Clear
4:53 AM 33.1 °F 28.7 °F 21.9 °F 64% 30.29 in 10.0 mi West 4.6 mph - N/A   Clear
5:53 AM 32.0 °F 28.7 °F 21.0 °F 64% 30.32 in 10.0 mi WSW 3.5 mph - N/A   Clear
6:53 AM 30.9 °F 23.5 °F 21.0 °F 67% 30.36 in 10.0 mi SW 8.1 mph - N/A   Clear
7:53 AM 37.0 °F 34.5 °F 24.1 °F 59% 30.39 in 10.0 mi West 3.5 mph - N/A   Clear
8:53 AM 45.0 °F 43.5 °F 25.0 °F 46% 30.41 in 10.0 mi West 3.5 mph - N/A   Clear
9:53 AM 51.1 °F - 10.0 °F 19% 30.43 in 10.0 mi NNW 8.1 mph - N/A   Clear
10:53 AM 53.1 °F - 6.1 °F 15% 30.42 in 10.0 mi North 12.7 mph - N/A   Clear
11:53 AM 54.0 °F - 5.0 °F 14% 30.40 in 10.0 mi North 15.0 mph - N/A   Clear
12:53 PM 55.0 °F - 1.9 °F 12% 30.38 in 10.0 mi North 16.1 mph - N/A   Clear
1:53 PM 55.0 °F - 1.9 °F 12% 30.37 in 10.0 mi North 16.1 mph 23.0 mph N/A   Clear
2:53 PM 54.0 °F - 3.9 °F 13% 30.36 in 10.0 mi North 13.8 mph - N/A   Clear
3:53 PM 52.0 °F - 8.1 °F 17% 30.38 in 10.0 mi NNW 6.9 mph - N/A   Clear
4:53 PM 48.9 °F - 14.0 °F 25% 30.39 in 10.0 mi NNW 4.6 mph - N/A   Clear
5:53 PM 48.0 °F - 8.1 °F 20% 30.40 in 10.0 mi North 5.8 mph - N/A   Clear
6:53 PM 46.0 °F 43.1 °F 9.0 °F 22% 30.40 in 10.0 mi NNE 5.8 mph - N/A   Clear
7:53 PM 45.0 °F 42.6 °F 6.1 °F 20% 30.42 in 10.0 mi North 4.6 mph - N/A   Clear
8:53 PM 39.0 °F 36.8 °F 12.9 °F 34% 30.42 in 10.0 mi NNW 3.5 mph - N/A   Clear
9:53 PM 37.9 °F - 12.0 °F 35% 30.43 in 10.0 mi Calm Calm - N/A   Clear
10:53 PM 36.0 °F 30.3 °F 14.0 °F 41% 30.42 in 10.0 mi WNW 6.9 mph - N/A   Clear
11:53 PM 33.1 °F 26.9 °F 14.0 °F 46% 30.39 in 10.0 mi West 6.9 mph - N/A   Clear